Change the Weather History Date:

Tuesday, October 14, 2014

  Actual Average Record
Temperature  
Mean Temperature 66 °F -  
Max Temperature 73 °F 64 °F 84 °F (1940)
Min Temperature 60 °F 39 °F 25 °F (1980)
Cooling Degree Days 1    
Growing Degree Days 16 (Base 50)    
Moisture  
Dew Point 59 °F    
Average Humidity 80    
Maximum Humidity 90    
Minimum Humidity 61    
Precipitation  
Precipitation 0.15 in - - ()
Sea Level Pressure  
Sea Level Pressure 29.64 in    
Wind  
Wind Speed 11 mph (SSE)    
Max Wind Speed 22 mph    
Max Gust Speed 34 mph    
Visibility 9 miles    
Events Rain    
Averages and records for this station are not official NWS values.
T = Trace of Precipitation, MM = Missing Value Source: NWS Daily Summary

Daily Weather History Graph

Daily Weather History Graph

Search for Another Location

Airport or City:

Trip Planner

Search our weather history database for the weather conditions in past years. The results will help you decide how hot, cold, wet, or windy it might be!

Date:

Astronomy

Oct. 14, 2014 Rise Set
Actual Time 7:48 AM EDT 6:58 PM EDT
Civil Twilight 7:20 AM EDT 7:26 PM EDT
Nautical Twilight 6:48 AM EDT 7:58 PM EDT
Astronomical Twilight 6:16 AM EDT 8:30 PM EDT
Moon No Moon Rise 1:50 PM EDT (10/14)
Length of Visible Light 12h 05m
Length of Day
11h 09m
Waning Gibbous, 61% of the Moon is Illuminated
Oct 14
Waning Gibbous
Oct 15
Last Quarter
Oct 23
New
Oct 30
First Quarter
Nov 6
Full

Hourly Weather History & Observations

Time (EDT) Temp. Dew Point Humidity Pressure Visibility Wind Dir Wind Speed Gust Speed Precip Events Conditions
12:53 AM 71.1 °F 61.0 °F 70% 29.73 in 10.0 mi SSE 10.4 mph 20.7 mph N/A   Overcast
1:53 AM 72.0 °F 60.1 °F 66% 29.70 in 10.0 mi SSE 10.4 mph - N/A   Mostly Cloudy
2:53 AM 72.0 °F 57.9 °F 61% 29.68 in 10.0 mi South 11.5 mph 19.6 mph N/A   Overcast
3:53 AM 69.1 °F 59.0 °F 70% 29.69 in 10.0 mi South 13.8 mph - 0.00 in   Overcast
4:53 AM 68.0 °F 59.0 °F 73% 29.65 in 10.0 mi SSE 10.4 mph 19.6 mph 0.00 in   Clear
5:53 AM 68.0 °F 59.0 °F 73% 29.64 in 10.0 mi South 15.0 mph 24.2 mph N/A   Mostly Cloudy
6:53 AM 68.0 °F 59.0 °F 73% 29.64 in 10.0 mi South 15.0 mph 21.9 mph N/A   Scattered Clouds
7:53 AM 66.9 °F 57.9 °F 73% 29.64 in 10.0 mi South 12.7 mph 21.9 mph 0.00 in Rain Light Rain
8:53 AM 66.0 °F 59.0 °F 78% 29.65 in 10.0 mi South 10.4 mph - 0.00 in Rain Light Rain
9:53 AM 66.0 °F 59.0 °F 78% 29.65 in 10.0 mi SSW 5.8 mph - 0.01 in Rain Light Rain
10:53 AM 66.9 °F 60.1 °F 79% 29.64 in 10.0 mi SE 5.8 mph - 0.00 in   Overcast
11:53 AM 70.0 °F 60.1 °F 71% 29.60 in 10.0 mi SSE 10.4 mph - 0.00 in   Overcast
12:29 PM 68.0 °F 60.1 °F 76% 29.60 in 2.0 mi SSE 19.6 mph 31.1 mph 0.04 in Rain Heavy Rain
12:36 PM 66.9 °F 61.0 °F 81% 29.60 in 3.0 mi SSE 11.5 mph 31.1 mph 0.04 in Rain Light Rain
12:53 PM 66.9 °F 61.0 °F 81% 29.58 in 7.0 mi SE 9.2 mph 18.4 mph 0.05 in Rain Rain
1:53 PM 68.0 °F 62.1 °F 81% 29.54 in 10.0 mi SE 9.2 mph - 0.02 in   Overcast
2:25 PM 68.0 °F 61.0 °F 78% 29.58 in 7.0 mi South 21.9 mph 34.5 mph 0.00 in Rain Light Rain
2:35 PM 66.0 °F 61.0 °F 84% 29.59 in 8.0 mi SSW 15.0 mph 27.6 mph 0.00 in Rain Light Rain
2:53 PM 64.9 °F 61.0 °F 87% 29.58 in 4.0 mi SSW 11.5 mph - 0.01 in Rain Light Rain
3:53 PM 64.0 °F 59.0 °F 84% 29.62 in 10.0 mi South 11.5 mph - 0.01 in Rain Light Rain
4:53 PM 62.1 °F 57.9 °F 86% 29.61 in 9.0 mi South 8.1 mph - 0.05 in Rain Light Rain
5:53 PM 62.1 °F 57.9 °F 86% 29.64 in 10.0 mi South 10.4 mph - 0.00 in Rain Light Rain
6:53 PM 62.1 °F 57.9 °F 86% 29.61 in 10.0 mi Calm Calm - 0.00 in   Scattered Clouds
7:53 PM 61.0 °F 57.0 °F 87% 29.65 in 10.0 mi SE 5.8 mph - N/A   Mostly Cloudy
8:53 PM 60.1 °F 57.0 °F 90% 29.66 in 10.0 mi Variable 4.6 mph - N/A   Mostly Cloudy
9:26 PM 60.1 °F 57.0 °F 90% 29.68 in 10.0 mi SE 6.9 mph - N/A   Mostly Cloudy
9:53 PM 60.1 °F 57.0 °F 90% 29.68 in 10.0 mi SSE 5.8 mph - N/A   Mostly Cloudy
10:20 PM 60.1 °F 57.0 °F 90% 29.68 in 9.0 mi South 6.9 mph - N/A   Overcast
10:53 PM 60.1 °F 57.0 °F 90% 29.69 in 8.0 mi SSE 5.8 mph - N/A   Overcast
11:53 PM 60.1 °F 55.9 °F 86% 29.70 in 8.0 mi South 6.9 mph - 0.00 in   Mostly Cloudy